"startDT [UTC]","vpos","CH4 [ppm]","stdev(CH4) [ppm]","CO2 [ppm]","stdev(CO2) [ppm]","H2O [ppm]","stdev(H2O)","p_LGR [torr]","T_LGR [C]","mt1_LGR [us]","mt2_LGR [us]","T_ECpre [C]","T_EC1 [C]","T_EC2 [C]","p_inlet [hPa]","p_in [hPa]","p_out [hPa]","T_inlet [C]","RH_inlet [%]","dwpt_inlet [C]","T_vent [C]","RH_vent [%]","dwpt_vent [C]","flow_vent [l min-1]","flow_inlet [l min-1]","dwpt_sample [C]","T_room [C]"
2012-09-08 00:00:00,0.0,1.9308,0.0010,388.42,0.32,224.7,37.1,138.04,31.84,24.65,36.50,0.95,-26.03,-25.27,-45,41,-933,22.8,25.1,1.8,23.1,2.0,-28.9,5.73,2.57,-27.6,28.8
2012-09-08 00:01:00,0.0,1.9307,0.0010,388.29,0.33,224.3,35.8,138.04,31.84,24.65,36.51,0.98,-26.04,-25.54,-45,41,-933,22.8,25.0,1.7,23.1,2.0,-28.9,5.73,2.55,-27.6,28.8
2012-09-08 00:02:00,0.0,1.9305,0.0010,388.27,0.37,221.6,37.3,138.04,31.84,24.65,36.51,1.04,-26.05,-25.80,-45,41,-933,22.8,25.1,1.8,23.1,1.9,-29.2,5.73,2.56,-27.6,28.7
2012-09-08 00:03:00,0.0,1.9312,0.0010,388.46,0.34,222.8,33.8,138.04,31.84,24.65,36.50,1.03,-26.07,-26.04,-46,41,-933,22.8,25.1,1.7,23.1,2.0,-29.1,5.73,2.58,-27.6,28.8
2012-09-08 00:04:00,0.0,1.9306,0.0011,388.31,0.31,221.3,32.0,138.04,31.84,24.65,36.51,0.94,-26.08,-25.90,-45,41,-933,22.8,25.1,1.8,23.1,2.0,-29.0,5.73,2.58,-27.6,28.7
2012-09-08 00:05:00,0.0,1.9302,0.0011,388.29,0.31,228.7,33.8,138.04,31.84,24.66,36.51,0.97,-26.10,-25.88,-45,41,-933,22.8,25.1,1.8,23.1,2.0,-29.0,5.73,2.56,-27.6,28.8
2012-09-08 00:06:00,0.0,1.9295,0.0010,388.38,0.31,221.4,37.4,138.04,31.84,24.66,36.51,0.96,-26.11,-26.06,-46,41,-934,22.8,25.1,1.7,23.1,1.9,-29.2,5.73,2.55,-27.6,28.7
2012-09-08 00:07:00,0.0,1.9306,0.0010,388.41,0.33,222.9,37.2,138.04,31.84,24.65,36.51,0.95,-26.12,-25.99,-45,41,-934,22.8,25.1,1.8,23.1,1.9,-29.1,5.73,2.57,-27.7,28.8
2012-09-08 00:08:00,0.0,1.9298,0.0011,388.31,0.33,221.9,36.0,138.04,31.84,24.66,36.51,1.04,-26.14,-25.89,-45,41,-934,22.8,25.1,1.8,23.1,1.9,-29.2,5.73,2.59,-27.7,28.7
2012-09-08 00:09:00,0.0,1.9293,0.0011,388.38,0.33,222.7,28.3,138.04,31.84,24.66,36.51,1.05,-26.14,-26.05,-45,41,-934,22.8,25.0,1.8,23.1,2.0,-29.1,5.73,2.57,-27.7,28.8
2012-09-08 00:10:00,0.0,1.9305,0.0010,388.25,0.33,216.8,35.1,138.04,31.84,24.65,36.51,1.00,-26.14,-26.08,-46,41,-934,22.8,25.0,1.7,23.1,2.0,-29.1,5.73,2.55,-27.7,28.7
2012-09-08 00:11:00,0.0,1.9309,0.0009,388.30,0.34,211.6,36.2,138.04,31.84,24.65,36.51,0.96,-26.16,-25.90,-45,41,-934,22.8,25.0,1.7,23.1,2.0,-28.9,5.73,2.56,-27.7,28.7
2012-09-08 00:12:00,0.0,1.9311,0.0012,388.39,0.31,217.7,33.9,138.04,31.84,24.65,36.50,0.96,-26.17,-26.04,-45,41,-934,22.8,25.1,1.8,23.1,1.9,-29.2,5.73,2.58,-27.7,28.7
2012-09-08 00:13:00,0.0,1.9312,0.0012,388.29,0.34,222.9,29.6,138.04,31.84,24.65,36.52,0.94,-26.17,-26.15,-46,41,-933,22.8,25.2,1.8,23.1,1.9,-29.2,5.73,2.58,-27.7,28.7
2012-09-08 00:14:00,0.0,1.9292,0.0011,388.33,0.40,222.7,28.2,138.04,31.84,24.65,36.51,1.01,-26.19,-25.92,-45,41,-933,22.8,25.1,1.8,23.1,1.9,-29.4,5.73,2.56,-27.7,28.7
2012-09-08 00:15:00,0.0,1.9300,0.0010,388.28,0.29,217.7,35.7,138.04,31.84,24.66,36.51,1.05,-26.20,-26.04,-45,41,-933,22.8,25.0,1.7,23.1,1.9,-29.2,5.73,2.55,-27.7,28.7
2012-09-08 00:16:00,0.0,1.9310,0.0012,388.30,0.35,218.5,34.0,138.04,31.84,24.65,36.51,0.99,-26.21,-26.20,-45,41,-933,22.8,25.2,1.8,23.1,1.9,-29.2,5.73,2.56,-27.8,28.7
2012-09-08 00:17:00,0.0,1.9315,0.0012,388.23,0.33,213.7,32.8,138.04,31.84,24.66,36.51,0.94,-26.21,-25.96,-46,41,-933,22.8,25.2,1.8,23.1,1.9,-29.3,5.73,2.59,-27.8,28.7
2012-09-08 00:18:00,0.0,1.9315,0.0010,388.43,0.30,222.3,36.9,138.04,31.83,24.66,36.51,0.90,-26.15,-26.04,-45,41,-933,22.7,25.4,1.9,23.1,1.9,-29.1,5.73,2.57,-27.8,28.7
2012-09-08 00:19:00,0.0,1.9311,0.0009,388.39,0.34,216.0,35.4,138.04,31.83,24.65,36.50,0.96,-24.98,-26.22,-45,41,-933,22.7,25.3,1.9,23.0,2.0,-29.1,5.73,2.56,-27.8,28.7
2012-09-08 00:20:00,0.0,1.9309,0.0011,388.35,0.26,228.8,27.9,138.04,31.83,24.65,36.50,0.92,-23.10,-26.37,-45,41,-933,22.7,25.3,1.9,23.0,1.9,-29.1,5.73,2.55,-27.5,28.7
2012-09-08 00:21:00,0.0,1.9317,0.0009,388.28,0.33,251.0,32.5,138.04,31.83,24.65,36.51,0.85,-21.17,-26.47,-46,41,-933,22.7,25.3,1.9,23.0,2.0,-28.9,5.73,2.56,-27.1,28.8
2012-09-08 00:22:00,0.0,1.9305,0.0010,388.31,0.32,277.2,38.9,138.04,31.83,24.65,36.51,0.84,-19.29,-26.53,-45,41,-933,22.7,25.2,1.8,23.0,2.1,-28.2,5.73,2.57,-26.8,28.8
2012-09-08 00:23:00,0.0,1.9306,0.0011,388.34,0.31,293.6,34.7,138.04,31.83,24.66,36.50,0.89,-17.50,-26.57,-45,41,-933,22.8,25.2,1.8,23.0,2.2,-27.7,5.73,2.58,-26.6,28.9
2012-09-08 00:24:00,0.0,1.9315,0.0010,388.36,0.32,303.2,29.0,138.04,31.83,24.66,36.50,0.89,-15.80,-26.60,-45,41,-933,22.8,25.2,1.8,23.1,2.3,-27.3,5.73,2.56,-26.5,28.9
2012-09-08 00:25:00,0.0,1.9309,0.0008,388.23,0.33,310.5,34.7,138.03,31.83,24.66,36.51,0.92,-14.19,-26.62,-45,41,-933,22.8,25.1,1.8,23.1,2.3,-27.4,5.73,2.55,-26.5,28.8
2012-09-08 00:26:00,0.0,1.9313,0.0012,388.31,0.41,300.1,31.5,138.03,31.83,24.66,36.51,0.95,-12.66,-26.63,-45,41,-934,22.8,25.1,1.8,23.1,2.3,-27.2,5.73,2.55,-26.4,28.9
2012-09-08 00:27:00,0.0,1.9314,0.0009,388.36,0.34,304.4,35.0,138.03,31.83,24.65,36.51,0.95,-11.23,-26.64,-45,41,-934,22.8,25.2,1.8,23.1,2.3,-27.4,5.73,2.56,-26.5,28.8
2012-09-08 00:28:00,0.0,1.9311,0.0010,388.31,0.34,302.7,32.8,138.03,31.83,24.65,36.51,0.93,-9.86,-26.65,-45,41,-934,22.8,25.2,1.8,23.1,2.2,-27.6,5.73,2.57,-26.5,28.9
2012-09-08 00:29:00,0.0,1.9308,0.0015,388.32,0.30,296.1,34.7,138.03,31.83,24.66,36.51,0.89,-8.57,-26.65,-45,41,-933,22.8,25.2,1.9,23.1,2.2,-27.6,5.73,2.57,-26.5,28.9
2012-09-08 00:30:00,0.0,1.9304,0.0009,388.26,0.31,298.5,33.6,138.03,31.83,24.65,36.51,0.87,-7.34,-26.65,-45,41,-933,22.8,25.2,1.8,23.1,2.2,-27.8,5.73,2.56,-26.6,28.9
2012-09-08 00:31:00,0.0,1.9304,0.0010,388.30,0.29,290.2,37.7,138.03,31.84,24.65,36.51,0.87,-6.16,-26.65,-45,41,-933,22.8,25.2,1.8,23.1,2.2,-27.9,5.73,2.55,-26.7,28.9
2012-09-08 00:32:00,0.0,1.9304,0.0009,388.26,0.38,287.9,36.3,138.03,31.84,24.65,36.51,0.91,-5.03,-26.65,-45,41,-933,22.8,25.2,1.9,23.1,2.2,-27.9,5.73,2.55,-26.7,29.0
2012-09-08 00:33:00,0.0,1.9308,0.0011,388.40,0.31,279.9,30.7,138.03,31.84,24.65,36.51,0.91,-3.97,-26.65,-45,41,-933,22.9,25.3,2.0,23.1,2.2,-28.1,5.73,2.55,-26.8,29.0
2012-09-08 00:34:00,0.0,1.9308,0.0012,388.36,0.36,278.6,29.1,138.03,31.83,24.66,36.50,0.92,-2.97,-26.65,-45,41,-934,22.8,25.3,1.9,23.1,2.2,-28.0,5.73,2.55,-26.9,28.9
2012-09-08 00:35:00,0.0,1.9307,0.0009,388.23,0.32,267.7,32.0,138.03,31.83,24.65,36.51,0.93,-2.02,-26.65,-45,41,-934,22.8,25.3,1.9,23.1,2.1,-28.2,5.73,2.56,-26.9,28.9
2012-09-08 00:36:00,0.0,1.9310,0.0009,388.36,0.31,275.1,31.1,138.03,31.83,24.65,36.51,0.94,-1.12,-26.65,-45,41,-934,22.9,25.5,2.1,23.1,2.1,-28.4,5.73,2.56,-27.0,29.0
2012-09-08 00:37:00,0.0,1.9311,0.0008,388.33,0.34,263.3,30.9,138.03,31.83,24.66,36.51,0.94,-0.27,-26.63,-45,41,-934,22.9,25.5,2.1,23.1,2.1,-28.4,5.73,2.56,-27.0,29.0
2012-09-08 00:38:00,0.0,1.9306,0.0011,388.37,0.33,260.6,35.0,138.03,31.84,24.65,36.51,0.94,0.54,-26.63,-45,41,-934,22.9,25.4,2.0,23.2,2.1,-28.4,5.73,2.55,-27.0,29.0
2012-09-08 00:39:00,0.0,1.9304,0.0009,388.30,0.36,259.8,34.7,138.03,31.84,24.66,36.51,0.94,1.29,-26.61,-45,41,-933,22.9,25.4,2.0,23.1,2.1,-28.5,5.73,2.55,-27.1,29.0
2012-09-08 00:40:00,0.0,1.9308,0.0012,388.47,0.30,257.6,32.5,138.03,31.84,24.66,36.51,0.94,2.00,-26.60,-45,41,-933,22.8,25.4,2.0,23.1,2.0,-28.7,5.73,2.54,-27.1,29.0
2012-09-08 00:41:00,0.0,1.9305,0.0011,388.34,0.30,252.1,29.9,138.03,31.84,24.65,36.51,0.94,2.60,-26.59,-45,41,-933,22.9,25.3,2.0,23.1,2.0,-28.6,5.73,2.54,-27.1,29.1
2012-09-08 00:42:00,0.0,1.9304,0.0009,388.31,0.34,256.0,32.4,138.03,31.84,24.65,36.51,0.91,2.87,-26.59,-45,41,-933,22.8,25.2,1.9,23.2,2.0,-28.7,5.73,2.54,-27.2,29.1
2012-09-08 00:43:00,0.0,1.9312,0.0010,388.35,0.34,252.5,32.6,138.03,31.84,24.65,36.51,0.91,3.04,-26.58,-45,41,-934,22.9,25.3,2.0,23.2,2.0,-28.8,5.73,2.55,-27.2,29.1
2012-09-08 00:44:00,0.0,1.9317,0.0010,388.31,0.40,240.8,32.0,138.03,31.84,24.66,36.51,0.93,3.39,-26.57,-45,40,-934,22.9,25.3,1.9,23.2,2.0,-28.9,5.73,2.55,-27.2,29.2
2012-09-08 00:45:00,0.0,1.9314,0.0009,388.36,0.28,239.0,34.4,138.03,31.84,24.66,36.51,0.91,3.78,-26.56,-45,41,-933,22.9,25.3,2.0,23.1,2.0,-28.9,5.73,2.55,-27.3,29.2
2012-09-08 00:46:00,0.0,1.9311,0.0008,388.35,0.31,235.1,33.1,138.03,31.85,24.65,36.51,0.90,4.25,-26.54,-45,40,-933,22.9,25.3,2.0,23.2,2.0,-29.0,5.73,2.55,-27.3,29.1
2012-09-08 00:47:00,0.0,1.9311,0.0009,388.39,0.35,238.1,40.1,138.03,31.85,24.65,36.51,0.93,4.71,-26.54,-45,40,-933,22.9,25.2,2.0,23.2,1.9,-29.2,5.73,2.55,-27.4,29.1
2012-09-08 00:48:00,0.0,1.9313,0.0011,388.41,0.33,235.2,34.4,138.03,31.85,24.66,36.51,0.92,5.11,-26.52,-45,40,-933,22.9,25.2,2.0,23.2,1.9,-29.1,5.73,2.54,-27.4,29.2
2012-09-08 00:49:00,0.0,1.9319,0.0008,388.41,0.32,237.3,32.4,138.03,31.85,24.65,36.51,0.92,5.55,-26.51,-45,40,-933,22.9,25.2,2.0,23.2,1.9,-29.1,5.73,2.53,-27.4,29.1
2012-09-08 00:50:00,0.0,1.9326,0.0011,388.49,0.31,232.0,27.3,138.03,31.85,24.65,36.50,0.92,6.05,-26.50,-45,40,-933,22.9,25.2,2.0,23.2,2.0,-28.9,5.73,2.53,-27.5,29.1
2012-09-08 00:51:00,0.0,1.9331,0.0012,388.50,0.28,224.5,30.6,138.03,31.86,24.66,36.50,0.94,6.41,-26.48,-45,40,-933,22.9,25.3,2.0,23.2,1.9,-29.1,5.73,2.54,-27.5,29.1
2012-09-08 00:52:00,0.0,1.9319,0.0012,388.51,0.34,231.4,30.7,138.03,31.85,24.66,36.51,0.93,6.97,-26.48,-45,40,-933,23.0,25.4,2.1,23.2,1.9,-29.2,5.73,2.55,-27.5,29.1
2012-09-08 00:53:00,0.0,1.9324,0.0011,388.39,0.32,225.1,33.2,138.03,31.86,24.65,36.51,0.91,7.42,-26.47,-45,40,-933,23.0,25.3,2.1,23.2,1.9,-29.4,5.73,2.56,-27.5,29.1
2012-09-08 00:54:00,0.0,1.9331,0.0010,388.33,0.32,232.0,31.9,138.03,31.86,24.65,36.51,0.91,7.83,-26.45,-45,40,-933,23.0,25.3,2.1,23.2,1.9,-29.3,5.73,2.55,-27.5,29.2
2012-09-08 00:55:00,0.0,1.9332,0.0009,388.46,0.26,228.7,33.2,138.03,31.86,24.65,36.51,0.92,8.22,-26.44,-45,40,-933,23.0,25.4,2.1,23.2,1.9,-29.2,5.73,2.54,-27.5,29.2
2012-09-08 00:56:00,0.0,1.9334,0.0008,388.57,0.31,224.3,36.9,138.03,31.86,24.65,36.50,0.93,8.60,-26.42,-45,40,-933,23.0,25.5,2.2,23.2,1.9,-29.2,5.73,2.54,-27.5,29.2
2012-09-08 00:57:00,0.0,1.9342,0.0009,388.40,0.26,228.7,35.8,138.03,31.86,24.65,36.51,0.93,8.97,-26.42,-45,40,-933,23.0,25.4,2.1,23.2,1.9,-29.3,5.73,2.54,-27.5,29.2
2012-09-08 00:58:00,0.0,1.9357,0.0014,388.55,0.35,229.4,32.6,138.03,31.86,24.65,36.51,0.93,9.32,-26.41,-45,40,-933,23.0,25.4,2.1,23.3,1.9,-29.2,5.73,2.53,-27.6,29.2
2012-09-08 00:59:00,0.0,1.9354,0.0014,388.39,0.32,229.7,28.8,138.03,31.86,24.66,36.51,0.93,9.66,-26.40,-45,40,-933,23.0,25.5,2.2,23.2,1.9,-29.3,5.73,2.53,-27.6,29.2
2012-09-08 01:00:00,0.0,1.9356,0.0012,388.53,0.30,233.4,31.1,138.03,31.86,24.66,36.50,0.94,10.00,-26.39,-45,40,-933,23.0,25.4,2.1,23.3,1.9,-29.3,5.73,2.54,-27.6,29.2
2012-09-08 01:01:00,0.0,1.9357,0.0010,388.48,0.31,222.4,33.0,138.03,31.86,24.65,36.51,0.93,10.32,-26.38,-45,40,-933,23.0,25.4,2.1,23.3,1.9,-29.2,5.73,2.54,-27.6,29.2
2012-09-08 01:02:00,0.0,1.9352,0.0012,388.40,0.40,220.9,39.2,138.03,31.86,24.65,36.51,0.94,10.63,-26.37,-45,40,-933,23.0,25.4,2.1,23.3,1.9,-29.3,5.73,2.54,-27.6,29.2
2012-09-08 01:03:00,0.0,1.9344,0.0011,388.36,0.36,218.1,33.0,138.03,31.86,24.65,36.51,0.94,10.93,-26.36,-45,40,-933,23.0,25.3,2.1,23.3,1.9,-29.2,5.73,2.54,-27.6,29.3
2012-09-08 01:04:00,0.0,1.9351,0.0011,388.45,0.29,215.1,34.2,138.03,31.86,24.65,36.50,0.94,11.22,-26.35,-45,40,-933,23.0,25.2,2.0,23.3,1.9,-29.3,5.73,2.54,-27.6,29.3
2012-09-08 01:05:00,0.0,1.9366,0.0010,388.45,0.34,223.2,29.9,138.03,31.86,24.66,36.51,0.94,11.49,-26.34,-45,40,-933,23.0,25.2,2.0,23.3,1.9,-29.3,5.73,2.54,-27.6,29.3
2012-09-08 01:06:00,0.0,1.9375,0.0011,388.47,0.36,223.4,33.3,138.03,31.86,24.65,36.51,0.93,11.76,-26.34,-45,40,-933,23.0,25.1,2.0,23.3,1.9,-29.3,5.73,2.54,-27.6,29.3
2012-09-08 01:07:00,0.0,1.9370,0.0010,388.51,0.35,230.4,37.7,138.03,31.87,24.66,36.50,0.93,12.02,-26.33,-45,40,-933,23.0,25.1,2.0,23.3,1.9,-29.3,5.73,2.54,-27.6,29.4
2012-09-08 01:08:00,0.0,1.9363,0.0010,388.50,0.30,217.7,33.7,138.03,31.87,24.66,36.51,0.94,12.27,-26.32,-45,40,-933,23.0,25.1,2.0,23.3,1.9,-29.3,5.73,2.53,-27.6,29.3
2012-09-08 01:09:00,0.0,1.9376,0.0012,388.61,0.27,215.5,35.8,138.03,31.87,24.65,36.50,0.94,12.50,-26.32,-45,40,-933,23.0,25.2,2.0,23.3,1.9,-29.3,5.73,2.53,-27.6,29.3
2012-09-08 01:10:00,0.0,1.9369,0.0011,388.57,0.35,210.1,32.3,138.03,31.87,24.65,36.50,0.94,12.74,-26.31,-45,40,-933,23.0,25.2,2.0,23.3,1.9,-29.3,5.73,2.53,-27.6,29.3
2012-09-08 01:11:00,0.0,1.9369,0.0010,388.44,0.34,217.5,37.8,138.03,31.87,24.65,36.51,0.94,12.96,-26.30,-45,40,-934,23.0,25.4,2.1,23.3,1.9,-29.2,5.73,2.54,-27.6,29.3
2012-09-08 01:12:00,0.0,1.9348,0.0009,388.41,0.31,215.6,35.0,138.03,31.86,24.66,36.51,0.94,13.17,-26.29,-45,40,-934,23.0,25.3,2.0,23.3,1.9,-29.2,5.73,2.55,-27.6,29.3
2012-09-08 01:13:00,0.0,1.9355,0.0011,388.55,0.35,217.5,32.9,138.03,31.86,24.65,36.50,0.94,13.37,-26.29,-45,40,-934,23.0,25.3,2.0,23.3,1.9,-29.3,5.73,2.55,-27.6,29.3
2012-09-08 01:14:00,0.0,1.9352,0.0011,388.46,0.37,219.9,40.7,138.03,31.86,24.65,36.50,0.94,13.56,-26.28,-45,40,-934,23.0,25.3,2.1,23.3,1.9,-29.3,5.73,2.54,-27.7,29.3
2012-09-08 01:15:00,0.0,1.9354,0.0009,388.46,0.31,221.6,35.1,138.03,31.86,24.65,36.50,0.94,13.75,-26.28,-45,40,-934,23.0,25.2,2.0,23.3,1.9,-29.3,5.73,2.54,-27.7,29.3
2012-09-08 01:16:00,0.0,1.9355,0.0012,388.45,0.31,215.7,31.8,138.03,31.87,24.66,36.51,0.94,13.93,-26.27,-45,40,-934,23.0,25.2,2.0,23.3,1.9,-29.3,5.73,2.54,-27.7,29.3
2012-09-08 01:17:00,0.0,1.9374,0.0011,388.53,0.39,215.7,39.0,138.03,31.87,24.66,36.51,0.94,14.10,-26.27,-45,40,-934,23.0,25.3,2.1,23.3,1.9,-29.2,5.73,2.54,-27.7,29.3
2012-09-08 01:18:00,0.0,1.9361,0.0022,388.50,0.33,220.7,40.3,138.03,31.87,24.66,36.51,0.94,14.27,-26.26,-45,40,-934,23.0,25.5,2.2,23.3,1.9,-29.2,5.73,2.53,-27.7,29.3
2012-09-08 01:19:00,0.0,1.9312,0.0010,388.37,0.32,222.2,32.1,138.03,31.87,24.66,36.51,0.93,14.43,-26.26,-45,40,-933,23.0,25.4,2.1,23.3,1.9,-29.3,5.73,2.53,-27.7,29.3
2012-09-08 01:20:00,0.0,1.9337,0.0014,388.43,0.36,221.6,32.2,138.03,31.87,24.66,36.51,1.09,-7.46,-44.70,-45,40,-933,23.0,25.3,2.1,23.3,1.9,-29.3,5.42,2.49,-31.8,29.3
2012-09-08 01:21:00,0.0,1.9343,0.0013,388.41,0.30,221.5,38.2,138.03,31.87,24.65,36.51,0.93,14.73,-26.24,-45,40,-933,23.0,25.2,2.0,23.3,1.9,-29.4,5.73,2.53,-27.7,29.3
2012-09-08 01:22:00,0.0,1.9332,0.0010,388.49,0.26,221.8,34.1,138.03,31.87,24.66,36.50,0.93,14.87,-26.24,-45,40,-933,23.0,25.3,2.1,23.3,1.9,-29.3,5.73,2.53,-27.7,29.4
2012-09-08 01:23:00,0.0,1.9347,0.0013,388.43,0.33,218.6,31.6,138.03,31.88,24.65,36.51,0.93,15.00,-26.23,-45,40,-933,23.0,25.3,2.1,23.3,1.9,-29.4,5.73,2.55,-27.6,29.3
2012-09-08 01:24:00,0.0,1.9350,0.0011,388.47,0.29,221.8,36.9,138.03,31.88,24.66,36.51,0.94,15.14,-26.22,-45,40,-934,23.0,25.4,2.1,23.3,1.9,-29.4,5.73,2.54,-27.6,29.4
2012-09-08 01:25:00,0.0,1.9343,0.0009,388.52,0.30,212.8,34.5,138.03,31.88,24.66,36.50,0.92,15.26,-26.22,-45,40,-934,23.0,25.5,2.2,23.3,1.9,-29.5,5.73,2.54,-27.7,29.3
2012-09-08 01:26:00,0.0,1.9348,0.0010,388.52,0.34,215.0,27.7,138.03,31.88,24.65,36.50,0.92,15.38,-26.22,-45,40,-934,23.0,25.5,2.2,23.3,1.9,-29.4,5.73,2.54,-27.7,29.4
2012-09-08 01:27:00,0.0,1.9341,0.0010,388.48,0.32,230.9,34.3,138.03,31.88,24.66,36.51,0.93,15.50,-26.21,-45,40,-934,23.0,25.7,2.3,23.3,1.9,-29.3,5.73,2.53,-27.7,29.4
2012-09-08 01:28:00,0.0,1.9342,0.0010,388.48,0.31,213.9,34.0,138.03,31.88,24.65,36.50,0.93,15.60,-26.21,-45,40,-934,23.0,25.8,2.4,23.3,1.9,-29.4,5.73,2.53,-27.7,29.4
2012-09-08 01:29:00,0.0,1.9334,0.0008,388.48,0.32,213.9,34.3,138.03,31.88,24.65,36.50,0.93,15.71,-26.20,-45,40,-934,23.0,25.9,2.4,23.3,1.9,-29.4,5.73,2.53,-27.7,29.3
2012-09-08 01:30:00,0.0,1.9335,0.0009,388.39,0.30,222.4,30.6,138.03,31.88,24.65,36.51,0.93,15.81,-26.20,-45,40,-934,23.0,26.0,2.5,23.3,1.9,-29.4,5.73,2.53,-27.7,29.3
2012-09-08 01:31:00,0.0,1.9348,0.0013,388.45,0.37,226.1,34.9,138.03,31.88,24.65,36.51,0.93,15.90,-26.20,-45,40,-933,23.0,26.0,2.5,23.3,1.9,-29.4,5.73,2.53,-27.7,29.2
2012-09-08 01:32:00,0.0,1.9337,0.0011,388.40,0.37,210.4,31.8,138.03,31.88,24.65,36.51,0.94,15.99,-26.20,-45,40,-934,23.0,25.9,2.4,23.3,1.9,-29.4,5.73,2.54,-27.7,29.2
2012-09-08 01:33:00,0.0,1.9283,0.0017,388.57,0.32,201.4,32.4,138.03,31.88,24.66,36.51,0.93,16.08,-26.19,-45,40,-934,23.0,25.8,2.3,23.3,1.9,-29.3,5.73,2.55,-27.7,29.3
2012-09-08 01:34:00,0.0,1.9273,0.0011,388.57,0.32,221.5,29.6,138.03,31.88,24.65,36.50,0.92,16.17,-26.19,-45,40,-934,23.0,25.8,2.3,23.3,1.9,-29.3,5.73,2.55,-27.7,29.3
2012-09-08 01:35:00,0.0,1.9268,0.0010,388.61,0.32,215.3,31.6,138.03,31.88,24.66,36.50,0.94,16.24,-26.18,-45,40,-933,23.0,25.5,2.2,23.3,1.9,-29.2,5.73,2.54,-27.7,29.4
2012-09-08 01:36:00,0.0,1.9269,0.0011,388.53,0.38,209.4,33.0,138.03,31.88,24.65,36.51,0.92,16.32,-26.18,-45,40,-933,23.0,25.4,2.1,23.3,1.9,-29.2,5.73,2.54,-27.7,29.3
2012-09-08 01:37:00,0.0,1.9266,0.0010,388.45,0.35,216.3,37.3,138.03,31.88,24.66,36.52,0.94,16.39,-26.18,-45,40,-933,23.0,25.7,2.3,23.3,1.9,-29.2,5.73,2.53,-27.7,29.4
2012-09-08 01:38:00,0.0,1.9270,0.0010,388.53,0.31,218.4,34.9,138.03,31.89,24.65,36.50,0.95,16.47,-26.17,-45,40,-934,23.0,25.8,2.3,23.3,1.9,-29.3,5.73,2.53,-27.7,29.3
2012-09-08 01:39:00,0.0,1.9266,0.0010,388.57,0.30,213.3,36.4,138.03,31.89,24.66,36.50,0.93,16.54,-26.16,-45,40,-934,23.0,25.8,2.4,23.3,1.9,-29.3,5.73,2.53,-27.8,29.3
2012-09-08 01:40:00,0.0,1.9266,0.0011,388.56,0.30,214.1,33.7,138.03,31.89,24.66,36.51,0.94,16.60,-26.16,-45,40,-934,23.0,25.7,2.3,23.3,1.9,-29.3,5.73,2.53,-27.7,29.3
2012-09-08 01:41:00,0.0,1.9263,0.0010,388.53,0.34,206.8,32.3,138.03,31.89,24.66,36.51,0.93,16.67,-26.16,-45,40,-934,23.0,25.5,2.2,23.3,1.9,-29.4,5.73,2.53,-27.8,29.3
2012-09-08 01:42:00,0.0,1.9267,0.0009,388.46,0.31,205.5,34.8,138.03,31.89,24.65,36.51,0.94,16.72,-26.15,-45,40,-933,23.0,25.4,2.2,23.3,1.9,-29.4,5.73,2.54,-27.8,29.3
2012-09-08 01:43:00,0.0,1.9271,0.0009,388.51,0.34,213.0,31.3,138.03,31.89,24.65,36.51,0.93,16.78,-26.15,-45,40,-933,23.0,25.3,2.1,23.3,1.9,-29.3,5.73,2.55,-27.8,29.3
2012-09-08 01:44:00,0.0,1.9262,0.0009,388.36,0.29,205.5,34.4,138.03,31.89,24.66,36.52,0.92,16.84,-26.15,-45,40,-934,23.0,25.5,2.2,23.3,1.9,-29.4,5.73,2.55,-27.8,29.3
2012-09-08 01:45:00,0.0,1.9265,0.0010,388.52,0.33,220.0,31.6,138.03,31.89,24.66,36.51,0.95,16.88,-26.15,-45,40,-934,23.0,25.2,2.0,23.3,1.9,-29.4,5.73,2.55,-27.8,29.3
2012-09-08 01:46:00,0.0,1.9263,0.0009,388.47,0.28,219.2,32.9,138.03,31.89,24.66,36.51,0.94,16.93,-26.15,-45,40,-934,23.0,25.5,2.2,23.3,1.9,-29.5,5.73,2.54,-27.8,29.3
2012-09-08 01:47:00,0.0,1.9264,0.0010,388.59,0.34,212.3,34.1,138.03,31.90,24.65,36.50,0.94,16.98,-26.15,-45,40,-933,23.0,25.5,2.2,23.3,1.9,-29.4,5.73,2.53,-27.8,29.3
2012-09-08 01:48:00,0.0,1.9268,0.0010,388.59,0.30,225.3,34.7,138.03,31.90,24.66,36.50,0.94,17.02,-26.15,-45,40,-933,23.0,25.5,2.2,23.3,1.9,-29.4,5.73,2.53,-27.8,29.3
2012-09-08 01:49:00,0.0,1.9266,0.0011,388.52,0.37,220.8,41.3,138.03,31.90,24.66,36.50,0.94,17.06,-26.15,-45,40,-933,23.0,25.5,2.2,23.3,1.9,-29.5,5.73,2.53,-27.7,29.3
2012-09-08 01:50:00,0.0,1.9269,0.0009,388.54,0.37,211.5,29.7,138.03,31.90,24.65,36.50,0.93,17.11,-26.15,-45,40,-934,23.0,25.4,2.1,23.3,1.9,-29.3,5.73,2.53,-27.8,29.3
2012-09-08 01:51:00,0.0,1.9265,0.0011,388.47,0.33,219.2,37.7,138.03,31.90,24.66,36.51,0.95,17.14,-26.14,-45,40,-934,23.0,25.6,2.2,23.3,1.9,-29.5,5.73,2.53,-27.8,29.3
2012-09-08 01:52:00,0.0,1.9264,0.0010,388.40,0.33,221.2,34.5,138.03,31.90,24.65,36.51,0.93,17.18,-26.14,-45,40,-934,23.0,25.5,2.2,23.3,1.9,-29.4,5.73,2.53,-27.8,29.3
2012-09-08 01:53:00,0.0,1.9260,0.0010,388.40,0.34,210.6,31.7,138.03,31.91,24.66,36.51,0.95,17.22,-26.14,-45,40,-934,23.0,25.4,2.1,23.3,1.9,-29.4,5.73,2.54,-27.8,29.3
2012-09-08 01:54:00,0.0,1.9262,0.0009,388.42,0.32,222.6,30.8,138.03,31.91,24.65,36.51,0.94,17.26,-26.14,-45,40,-934,23.0,25.6,2.3,23.3,1.9,-29.4,5.73,2.54,-27.8,29.4
2012-09-08 01:55:00,0.0,1.9261,0.0010,388.48,0.32,218.4,32.9,138.03,31.91,24.66,36.51,0.94,17.29,-26.14,-45,40,-934,23.0,25.3,2.1,23.3,1.9,-29.4,5.73,2.54,-27.8,29.3
2012-09-08 01:56:00,0.0,1.9257,0.0009,388.53,0.31,214.9,35.2,138.03,31.91,24.66,36.51,0.93,17.32,-26.13,-45,40,-934,23.0,25.3,2.1,23.3,1.9,-29.4,5.73,2.54,-27.8,29.3
2012-09-08 01:57:00,0.0,1.9260,0.0010,388.50,0.33,214.1,38.0,138.03,31.91,24.65,36.50,0.95,17.36,-26.13,-45,40,-933,23.0,25.5,2.2,23.3,1.8,-29.5,5.73,2.54,-27.8,29.3
2012-09-08 01:58:00,0.0,1.9262,0.0009,388.59,0.35,219.0,34.4,138.03,31.91,24.65,36.50,0.94,17.39,-26.13,-45,40,-934,23.0,25.2,2.0,23.3,1.9,-29.4,5.73,2.53,-27.8,29.3
2012-09-08 01:59:00,0.0,1.9254,0.0008,388.44,0.33,204.1,38.7,138.03,31.91,24.66,36.51,0.92,17.42,-26.13,-45,40,-934,23.0,25.5,2.2,23.3,1.9,-29.4,5.73,2.53,-27.8,29.3
2012-09-08 02:00:00,0.0,1.9255,0.0010,388.42,0.32,213.5,33.8,138.03,31.91,24.66,36.51,0.93,17.44,-26.13,-45,40,-933,23.0,25.2,2.0,23.3,1.9,-29.4,5.73,2.53,-27.8,29.3
2012-09-08 02:01:00,0.0,1.9259,0.0009,388.35,0.29,214.7,36.1,138.03,31.91,24.66,36.51,0.94,17.47,-26.12,-45,40,-934,23.0,25.3,2.0,23.3,1.9,-29.5,5.73,2.54,-27.8,29.3
2012-09-08 02:02:00,0.0,1.9258,0.0011,388.40,0.34,211.0,36.1,138.03,31.91,24.65,36.51,0.95,17.49,-26.13,-45,40,-934,23.0,25.4,2.1,23.3,1.9,-29.4,5.73,2.55,-27.8,29.3
2012-09-08 02:03:00,0.0,1.9258,0.0011,388.55,0.38,215.3,30.1,138.03,31.91,24.65,36.51,0.95,17.51,-26.13,-45,40,-934,23.0,25.1,2.0,23.3,1.9,-29.4,5.73,2.55,-27.8,29.3
2012-09-08 02:04:00,0.0,1.9249,0.0011,388.45,0.29,210.7,29.4,138.03,31.91,24.66,36.51,0.92,17.53,-26.13,-45,40,-933,22.9,25.3,2.0,23.3,1.9,-29.4,5.73,2.55,-27.8,29.3
2012-09-08 02:05:00,0.0,1.9252,0.0010,388.55,0.32,211.9,34.5,138.03,31.91,24.66,36.50,0.94,17.56,-26.13,-45,40,-934,23.0,25.4,2.1,23.3,1.9,-29.4,5.73,2.54,-27.8,29.3
2012-09-08 02:06:00,0.0,1.9251,0.0010,388.49,0.32,214.3,35.6,138.03,31.91,24.66,36.50,0.93,17.58,-26.12,-45,40,-934,23.0,25.3,2.1,23.3,1.9,-29.4,5.73,2.53,-27.8,29.3
2012-09-08 02:07:00,0.0,1.9250,0.0012,388.48,0.31,209.4,34.1,138.03,31.91,24.66,36.50,0.94,17.60,-26.13,-45,40,-934,23.0,25.3,2.1,23.3,1.9,-29.5,5.73,2.53,-27.8,29.3
2012-09-08 02:08:00,0.0,1.9248,0.0008,388.51,0.34,217.4,31.8,138.03,31.91,24.65,36.50,0.94,17.62,-26.13,-45,40,-934,23.0,25.5,2.2,23.3,1.8,-29.6,5.73,2.53,-27.8,29.3
2012-09-08 02:09:00,0.0,1.9249,0.0010,388.61,0.32,216.3,29.0,138.03,31.91,24.65,36.50,0.94,17.63,-26.12,-45,40,-933,23.0,25.4,2.1,23.3,1.9,-29.4,5.73,2.53,-27.8,29.3
2012-09-08 02:10:00,0.0,1.9246,0.0011,388.47,0.35,209.0,40.8,138.03,31.91,24.66,36.51,0.92,17.65,-26.13,-45,40,-933,23.0,25.2,2.0,23.3,1.9,-29.4,5.73,2.54,-27.8,29.2
2012-09-08 02:11:00,0.0,1.9252,0.0009,388.52,0.32,210.8,32.1,138.03,31.91,24.65,36.51,0.95,17.67,-26.12,-45,40,-934,23.0,25.0,1.9,23.3,1.9,-29.5,5.73,2.54,-27.8,29.2
2012-09-08 02:12:00,0.0,1.9248,0.0010,388.39,0.33,216.6,33.4,138.03,31.91,24.66,36.51,0.92,17.68,-26.12,-45,40,-934,23.0,25.0,1.9,23.3,1.9,-29.4,5.73,2.55,-27.8,29.3
2012-09-08 02:13:00,0.0,1.9247,0.0010,388.56,0.32,213.0,29.3,138.03,31.91,24.66,36.51,0.93,17.69,-26.13,-45,40,-934,23.0,24.9,1.8,23.3,1.9,-29.4,5.73,2.55,-27.8,29.3
2012-09-08 02:14:00,0.0,1.9250,0.0009,388.44,0.29,214.1,35.5,138.03,31.91,24.65,36.51,0.93,17.71,-26.13,-45,40,-934,23.0,25.0,1.9,23.3,1.9,-29.4,5.73,2.54,-27.8,29.4
2012-09-08 02:15:00,0.0,1.9251,0.0010,388.53,0.33,219.8,35.3,138.03,31.91,24.65,36.50,0.96,17.72,-26.12,-45,40,-933,23.0,25.1,2.0,23.3,1.8,-29.6,5.73,2.54,-27.8,29.3
2012-09-08 02:16:00,0.0,1.9250,0.0010,388.47,0.30,213.4,36.5,138.03,31.91,24.65,36.51,0.94,17.73,-26.13,-45,40,-933,23.0,25.3,2.1,23.3,1.9,-29.5,5.73,2.53,-27.8,29.3
2012-09-08 02:17:00,0.0,1.9250,0.0010,388.44,0.29,208.5,33.8,138.03,31.91,24.65,36.51,1.14,16.87,-26.13,-45,40,-934,23.0,25.3,2.1,23.3,1.9,-29.5,5.73,2.53,-27.8,29.3
2012-09-08 02:18:00,0.0,1.9248,0.0010,388.47,0.32,210.4,33.5,138.03,31.91,24.65,36.51,1.08,14.80,-26.13,-45,40,-934,23.0,25.0,1.9,23.3,1.9,-29.5,5.73,2.53,-27.9,29.3
2012-09-08 02:19:00,0.0,1.9243,0.0009,388.52,0.31,209.3,32.7,138.03,31.91,24.66,36.50,0.98,12.48,-26.15,-45,40,-934,23.0,25.1,2.0,23.3,1.9,-29.4,5.73,2.54,-27.9,29.2
2012-09-08 02:20:00,0.0,1.9246,0.0010,388.38,0.33,207.9,33.6,138.03,31.91,24.65,36.51,0.96,10.12,-26.17,-45,40,-933,23.0,25.2,2.0,23.3,1.9,-29.4,5.73,2.55,-27.9,29.2
2012-09-08 02:21:00,0.0,1.9243,0.0010,388.45,0.33,205.1,35.4,138.03,31.92,24.65,36.51,1.09,7.85,-26.18,-45,40,-934,23.0,25.0,1.9,23.3,1.9,-29.5,5.73,2.56,-27.9,29.1